User: anonymous   Login
Location: Sungai Bunut
(2.6333°N, 113.7333°E)
Time: 05:06:07
(UTC+00:00)
Language:

Sea Lan Dem Rocket - Orbit

View from above orbital plane
View from above orbital plane
View from above satellite
View from above satellite

Ground track
Ground track

The orbit data is extracted from the following two-line orbital elements,

1 25662U 99014B   22017.58838744 -.00000145  00000-0 -61128-4 0  9997
2 25662   0.7770 130.6950 7188239 346.5948  18.2801  2.24304243186969
Epoch (UTC): 17 January 2022 14:07:16
Eccentricity: 0.7188239
inclination: 0.7770°
perigee height: 553 km
apogee height: 35993 km
right ascension of ascending node: 130.6950°
argument of perigee: 346.5948°
revolutions per day: 2.24304243
mean anomaly at epoch: 18.2801°
orbit number at epoch: 18696

The dashed part of the orbit path shows where the satellite is in the earth's shadow,  

DLR